Weather observations for the past three days for
Hatteras, Mitchell Field
Metric (Imperial)
Date Time (edt) Wind (kph) Vis. (km) Weather Sky Cond. Temperature (ºC) Relative Humidity Wind Chill (°C) Heat Index (°C) Pressure Precipitation (cm)
Air Dwpt 6 hour altimeter (cm) sea level (mb) 1 hr 3 hr 6 hr
Max. Min.
21 11:51 Vrbl 9 16.09 Overcast FEW026 SCT042 OVC055 28.3 23.9 77% 32 76.84 1024.4 0.03
21 10:51 SE 9 16.09 Mostly Cloudy BKN055 29.4 22.8 68% 33 76.84 1024.4
21 09:51 E 11 16.09 Fair CLR 28.9 22.2 67% 32 76.84 1024.3
21 08:51 SE 15 16.09 Partly Cloudy SCT035 SCT049 28.3 22.2 70% 31 76.84 1024.4
21 07:51 E 9 16.09 Overcast SCT036 OVC046 26.1 21.7 26.1 22.2 77% 28 76.84 1024.4
21 06:51 E 6 16.09 Partly Cloudy SCT024 SCT030 23.9 20.6 82% 24 76.84 1024.2
21 05:51 E 6 16.09 Fair CLR 22.2 19.4 84% 76.81 1024.0
21 04:51 SE 11 16.09 Fair CLR 24.4 19.4 74% 25 76.81 1023.8
21 03:51 SE 13 16.09 Fair CLR 24.4 20 77% 25 76.86 1024.5
21 02:51 SE 17 16.09 Fair CLR 25 19.4 71% 26 76.84 1024.4
21 01:51 SE 13 16.09 Fair CLR 25 20 26.1 24.4 74% 26 76.89 1024.9
21 00:51 SE 13 16.09 Fair CLR 25 18.9 69% 26 76.91 1025.4
20 23:51 SE 17 16.09 A Few Clouds FEW032 25.6 20 71% 27 76.94 1025.7
20 22:51 SE 15 16.09 Partly Cloudy FEW036 SCT050 25.6 20.6 74% 27 76.94 1025.6
20 21:51 SE 13 16.09 Overcast FEW027 SCT035 OVC048 26.1 20.6 72% 28 76.94 1025.6
20 20:51 SE 7 16.09 Fair CLR 25.6 20.6 74% 27 76.89 1025.1
20 19:51 SE 9 16.09 Mostly Cloudy FEW024 SCT030 BKN045 26.1 20.6 31.1 26.1 72% 28 76.91 1025.2
20 18:51 NE 11 16.09 Overcast SCT029 BKN039 OVC050 26.1 21.1 74% 28 76.89 1025.0
20 17:51 NE 7 16.09 Mostly Cloudy BKN036 27.2 19.4 62% 29 76.91 1025.2
20 16:51 E 15 16.09 Partly Cloudy SCT037 28.9 19.4 57% 30 76.94 1025.8
20 15:51 SE 13 G 30 16.09 Mostly Cloudy SCT041 BKN050 29.4 19.4 55% 31 76.99 1026.2
20 14:51 SE 17 16.09 Fair CLR 30.6 19.4 51% 32 77.01 1026.7
20 13:51 SE 17 16.09 A Few Clouds FEW043 31.1 18.9 31.1 26.1 48% 32 77.04 1027.0
20 12:51 SE 19 16.09 Partly Cloudy FEW042 SCT050 29.4 18.9 53% 31 77.06 1027.5
20 11:51 SE 17 16.09 Mostly Cloudy BKN039 BKN050 29.4 19.4 55% 31 77.09 1027.6
20 10:51 SE 20 16.09 Partly Cloudy SCT043 29.4 19.4 55% 31 77.06 1027.4
20 09:51 SE 19 16.09 A Few Clouds FEW037 28.9 19.4 57% 30 77.04 1027.1
20 08:51 E 15 16.09 A Few Clouds FEW036 27.8 19.4 60% 29 77.04 1027.0
20 07:51 E 15 16.09 Fair CLR 26.7 18.9 26.7 22.2 62% 28 77.01 1026.7
20 06:51 E 7 16.09 Fair CLR 23.3 18.3 74% 77.01 1026.5
20 05:51 NE 9 16.09 Fair CLR 22.2 17.8 76% 76.96 1026.0
20 04:51 E 9 16.09 Fair CLR 22.8 17.2 71% 76.96 1025.9
20 03:51 E 13 16.09 Fair CLR 24.4 17.8 67% 25 76.94 1025.5
20 02:51 E 15 16.09 Fair CLR 23.3 18.9 76% 76.94 1025.5
20 01:51 E 15 16.09 A Few Clouds FEW045 24.4 18.9 26.1 23.9 72% 25 76.94 1025.8
20 00:51 E 15 16.09 Fair CLR 25 18.9 69% 26 76.96 1025.9
19 23:51 E 13 16.09 Fair CLR 25 18.9 69% 26 77.01 1026.6
19 22:51 E 19 16.09 A Few Clouds FEW034 FEW043 25 20 74% 26 77.01 1026.6
19 21:51 E 9 16.09 Fair CLR 24.4 18.9 72% 25 77.01 1026.6
19 20:51 Vrbl 7 16.09 A Few Clouds FEW038 25.6 20 71% 27 76.99 1026.2
19 19:51 E 15 16.09 Fair CLR 26.1 20 30 26.1 69% 27 76.96 1026.0
19 18:51 E 19 16.09 Fair CLR 27.2 20 65% 29 76.96 1026.1
19 17:51 E 19 16.09 A Few Clouds FEW035 27.8 20 63% 29 76.96 1025.9
19 16:51 E 13 G 28 16.09 Overcast SCT034 BKN043 OVC060 27.2 20.6 67% 29 76.99 1026.4
19 15:51 E 19 G 39 16.09 Partly Cloudy SCT035 29.4 20 57% 31 77.01 1026.6
19 14:51 E 19 G 33 16.09 Mostly Cloudy BKN033 BKN043 28.9 20.6 61% 31 77.01 1026.7
19 13:51 E 15 16.09 Light Rain BKN032 OVC041 27.8 21.1 31.1 27.2 67% 30 77.04 1026.8
19 12:51 SE 15 16.09 Mostly Cloudy SCT038 BKN049 30 20 55% 32 77.04 1027.1
19 11:51 SE 15 16.09 Mostly Cloudy FEW032 BKN048 30 20.6 57% 32 77.04 1026.9
19 10:51 E 19 16.09 Mostly Cloudy BKN043 BKN050 29.4 20.6 59% 32 77.04 1026.8
19 09:51 E 15 16.09 Partly Cloudy FEW033 SCT044 28.9 20 59% 31 77.04 1026.9
19 08:51 E 15 16.09 Fair CLR 27.8 20 63% 29 77.01 1026.7
19 07:51 E 9 16.09 Fair CLR 27.2 19.4 27.2 24.4 62% 29 76.99 1026.4
19 06:51 E 13 16.09 Fair CLR 25.6 18.9 67% 27 76.96 1025.9
19 05:51 E 17 16.09 A Few Clouds FEW038 FEW048 24.4 18.9 72% 25 76.91 1025.2
19 04:51 SE 17 16.09 Fair CLR 25 18.3 66% 26 76.86 1024.7
19 03:51 SE 17 16.09 A Few Clouds FEW032 25 19.4 71% 26 76.86 1024.5
19 02:51 SE 19 16.09 Fair CLR 25 19.4 71% 26 76.84 1024.2
19 01:51 SE 17 16.09 Partly Cloudy FEW029 FEW037 SCT055 25 20 25.6 22.8 74% 26 76.86 1024.6
19 00:51 SE 19 16.09 Partly Cloudy FEW032 SCT055 25 20 74% 26 76.86 1024.6
18 23:51 E 7 16.09 Partly Cloudy SCT036 SCT055 23.3 20 82% 76.89 1025.0
18 22:51 NE 7 16.09 Fair CLR 22.8 19.4 81% 76.89 1024.9
18 21:51 NE 7 16.09 A Few Clouds FEW036 FEW048 23.3 18.9 76% 76.89 1024.9
18 20:51 E 7 16.09 Fair CLR 23.3 18.3 74% 76.84 1024.3
18 19:51 E 13 16.09 A Few Clouds FEW037 25.6 18.3 30 25.6 64% 27 76.81 1024.1
18 18:51 E 13 16.09 Fair CLR 26.7 17.8 58% 28 76.81 1023.9
18 17:51 E 19 16.09 A Few Clouds FEW039 26.7 18.3 60% 28 76.78 1023.6
18 16:51 E 19 16.09 Mostly Cloudy BKN040 27.8 18.3 56% 29 76.84 1024.2
18 15:51 E 17 16.09 Mostly Cloudy BKN039 27.8 18.9 58% 29 76.86 1024.5
18 14:51 SE 22 16.09 Partly Cloudy SCT040 SCT047 30 18.9 51% 31 76.89 1024.8
18 13:51 SE 22 16.09 Mostly Cloudy BKN040 30 18.9 30 26.1 51% 31 76.86 1024.7
18 12:51 E 20 16.09 Mostly Cloudy BKN039 BKN048 28.9 18.9 55% 30 76.89 1024.8
Date Time (edt) Wind (kph) Vis. (km) Weather Sky Cond. Air Dwpt Max. Min. Relative Humidity Wind Chill (°C) Heat Index (°C) altimeter (cm) sea level (mb) 1 hr 3 hr 6 hr
6 hour
Temperature (ºC) Pressure Precipitation (cm)